Regional Weather Roundup
Issued by NWS Cleveland, OH

Home | Current Version | Previous Version | Graphics & Text | Print | Product List | Glossary On
Versions: 1 2 3 4 5 6 7 8 9 10 11 12 13 14 15 16 17 18 19 20 21 22 23 24 25 26 27 28 29 30 31 32 33 34 35 36 37 38 39 40 41 42 43 44 45 46 47 48 49 50
000
ASUS41 KCLE 161410
RWRCLE
OHIO REGIONAL WEATHER ROUNDUP
NATIONAL WEATHER SERVICE CLEVELAND, OH
1000 AM EDT MON OCT 16 2017

NOTE: "FAIR" INDICATES FEW OR NO CLOUDS BELOW 12,000 FEET WITH NO
SIGNIFICANT WEATHER AND/OR OBSTRUCTIONS TO VISIBILITY.

OHZ001>008-015>018-024>027-034-035-043-044-161500-
   NORTHWEST OHIO

CITY           SKY/WX    TMP DP  RH WIND       PRES   REMARKS
DEFIANCE       MOSUNNY   50  43  77 CALM      30.31R
FINDLAY        PTSUNNY   49  41  74 NW6       30.29R
TOLEDO EXPRESS MOSUNNY   49  43  80 N5        30.30R
TOLEDO EXEC    PTSUNNY   49  39  68 NW6       30.31R
LIMA           PTSUNNY   49  44  83 NW3       30.30S
$$

OHZ009>014-019>023-028>033-038-089-161500-
   NORTHEAST OHIO

CITY           SKY/WX    TMP DP  RH WIND       PRES   REMARKS
CLE-HOPKINS    MOSUNNY   52  39  61 NW10      30.28R
CLE-LAKEFRONT  MOSUNNY   53  39  59 NW16G24   30.25R
CUY CO. ARPT   PTSUNNY   52  41  66 N10       30.25R
LORAIN-ELYRIA  MOSUNNY   51  35  54 N9        30.28R
ASHTABULA      CLOUDY    50  42  74 NW5       30.23R
AKRON-CANTON   SUNNY     51  40  65 N14G30    30.24R
WOOSTER        MOSUNNY   50  42  74 NW13      30.26R
MANSFIELD      CLOUDY    47  42  83 NW12      30.28R
YOUNGSTOWN     CLOUDY    50  44  80 NW7       30.22R
$$

OHZ042-051>053-060>062-070>072-077>081-161500-
  SOUTHWEST OHIO

CITY           SKY/WX    TMP DP  RH WIND       PRES   REMARKS
CINC-COVINGTON PTSUNNY   51  48  89 N8        30.32R
CINC-LUNKEN    MOSUNNY   54  45  71 N6        30.34R
HAMILTON       MOSUNNY   52  47  83 N7        30.33R
DAYTON         MOSUNNY   49  47  93 NW7       30.32R
WRIGHT-PAT AFB MOSUNNY   48  45  88 N7        30.32R
DAYTON GENERAL SUNNY     51  45  79 N8        30.31R
WILMINGTON     MOSUNNY   49  45  86 N12       30.31R
$$

OHZ036-037-039>041-045>050-054>059-063>069-073>076-082>088-161500-
  CENTRAL AND SOUTHEAST OHIO

CITY           SKY/WX    TMP DP  RH WIND       PRES   REMARKS
COLUMBUS       SUNNY     51  43  74 N10       30.29R
OSU AIRPORT    SUNNY     49  44  83 NW9       30.30R
BOLTON FIELD   SUNNY     48  43  81 NW10      30.30R
RICKENBACK AFB SUNNY     49  42  78 N9        30.29R
NEWARK         SUNNY     52  40  63 NW9       30.27R
MARION         CLOUDY    47  41  80 NW7       30.30R
LANCASTER      SUNNY     51  43  74 NW9       30.29R
ZANESVILLE     MOSUNNY   53  43  68 NW9       30.26R
NEW PHILLY     NOT AVBL
$$




USA.gov is the U.S. government's official web portal to all federal, state and local government web resources and services.